Showing default

OPS 4078 (DMSP 4B F2), 3510

Orbit data source: Space-Track

OPS 4078 (DMSP 4B F2), 3510 is a payload satellite owned by SAMSO (US) in SSO that was launched on Wed, 23 Oct 1968 UTC via a THOR BURNER 2 launch vehicle from the Air Force Western Test Range (AFWTR). Payload-class satellites include a variety of spacecraft equipped with specific instruments for various scientific and technological missions. These include communications satellites like Starlink; space stations such as the ISS; scientific satellites like the Hubble; Earth observation satellites from companies like Planet Labs, Umbra, and HawkEye 360; GPS; miniature CubeSats for education and research; and military/defense satellites.

Loading next visibility...
Identifier
3510, 1968-092A
Orbit
SSO
Country
Flag of USUS
Related business
Manufacturer
RCA/East Windsor
Mission
Non-operational spacecraft
Bus & Motor
DMSP BLOCK 4B, Unknown motor
Mass
79 kg wet, 79 kg dry
Launch date (UTC)
1968-10-23 (58 years ago)
Launch vehicle
THOR BURNER 2
Launch site
Air Force Western Test Range (AFWTR)
Object type
Payload
Rocket body
Debris
Shape & HBR
Unknown
Radar Cross Section
Medium (>0.1 m² and <1 m²)

Expand to show TLE details & history
Last TLE update: 2 days ago

TLE from 2 days ago
0 OPS 4078 (DMSP 4B F2)
1 03510U 68092A   26173.62048148  .00000068  00000-0  44635-4 0  9996
2 03510  98.5732 296.0775 0028805 313.2898  46.5881 14.28253374998027
Epoch: 2026-06-22T14:53Z
TLE epoch observation values (Epoch: 2026-06-22T14:53:29.599Z)
Latitude
-0.00005°
Longitude
161.9004°
Altitude
786.329 km
Speed
7.468 km/s
True Right ascension
19h 44m 18s
True Declination
0° 00' 00"
Sunlit
Object was in full shadow at epoch
Visualization orbit readout
Latitude
Unknown
Longitude
Unknown
Altitude
Unknown
Speed
Unknown
Apparent Right ascension
Unknown
Apparent Declination
Unknown
Sunlit
N/A
Visualization observer readout
Local Sidereal Time
14:48:27
Azimuth
Unknown
Elevation
Unknown
Doppler factor
Unknown
Orbital elements
Apogee altitude
815.377 km
Perigee altitude
774.055 km
Semi-major axis
7,172.853 km
Eccentricity
0.00288
Inclination
98.5732°
RAAN
296.0775°
Arg. of periapsis
313.2898°
True anomaly
46.82848°
Mean anomaly
46.5881°
Eccentric anomaly
46.70823°
Mean motion
3.57277 °/min
Orbital period
100.76 mins
BSTAR
0.000044635
Loading maneuver chart data...
Computing Atmospheric mass density...
Loading historical data...
Loading historical data...
Loading historical data...
Loading historical data...
Loading historical data...
Loading historical data...
Loading historical data...
Other satellites on launch #92 in the year 1968 (1968-10-23 UTC)

Documentation

Showing up to 5 results
|